CAPE
nan nan nan nan nan nan nan nan nan nan nan nan nan nan nan nan nan nan nan nan nan nan nan nan nan nan nan nan 1 1 3 6 10 10 16 22 29 29 34 34 34 32 30 29 29 29 37 43 43 48 52 62 70 70 80 82 82 67 54 42 42 37 38 46 46 59 74 94 109 109 117 123 132 132 148 154 160 160 160 176 176 200 208 212 212 211
nan nan nan nan nan nan nan nan nan nan nan nan nan nan nan nan nan nan nan nan nan nan nan nan nan nan nan nan 1 1 4 5 9 9 15 22 33 33 39 41 41 39 36 34 34 33 41 44 44 48 56 62 66 66 73 65 65 55 40 30 30 24 26 33 33 47 61 84 104 104 115 119 127 127 136 144 144 144 149 164 164 195 210 222 222 237
nan nan nan nan nan nan nan nan nan nan nan nan nan nan nan nan nan nan nan nan nan nan nan nan nan nan nan nan 3 3 5 7 10 10 15 23 35 35 41 48 48 48 43 40 40 38 43 46 46 53 57 65 69 69 69 59 59 46 32 22 22 16 18 22 22 34 48 62 79 79 96 101 112 112 116 125 130 130 141 167 167 201 217 236 236 253
nan nan nan nan nan nan nan nan nan nan nan nan nan nan nan nan nan nan nan nan nan nan nan nan nan nan nan nan 4 4 14 17 20 20 20 26 36 36 45 51 51 52 48 47 47 46 48 48 48 55 62 72 72 72 68 55 55 41 27 14 14 13 13 19 19 24 34 44 55 55 65 79 86 86 95 104 128 128 155 193 193 232 238 246 246 250
nan nan nan nan nan nan nan nan nan nan nan nan nan nan nan nan nan nan nan nan nan nan nan nan nan nan nan nan 4 4 26 33 34 34 33 34 38 38 45 51 51 55 54 51 51 49 52 56 56 61 70 75 74 74 67 53 53 36 23 14 14 12 15 19 19 21 29 37 41 41 50 61 73 73 93 117 137 137 172 201 201 240 256 251 251 248
nan nan nan nan nan nan nan nan nan nan nan nan nan nan nan nan nan nan nan nan nan nan nan nan nan nan nan nan 8 8 36 44 48 48 48 41 45 45 46 50 50 53 55 52 52 55 59 64 64 74 80 80 75 75 75 62 62 44 22 11 11 10 11 16 16 21 27 34 40 40 46 59 78 78 106 134 150 150 174 197 197 246 257 253 253 249
nan nan nan nan nan nan nan nan nan nan nan nan nan nan nan nan nan nan nan nan nan nan nan nan nan nan nan 1 21 21 37 43 51 51 49 47 44 44 47 50 50 48 48 48 48 56 65 74 74 79 83 83 83 83 74 56 56 33 18 8 8 8 12 14 14 21 26 31 40 40 50 65 88 88 116 139 162 162 175 200 200 237 249 256 256 256
nan nan nan nan nan nan nan nan nan nan nan nan nan nan nan nan nan nan nan 0 0 nan nan nan nan nan nan nan nan nan nan nan nan nan nan 3 16 16 26 36 36 42 44 48 48 57 69 83 83 93 88 84 74 74 59 26 26 9 3 3 3 4 7 14 14 21 29 40 50 50 63 82 108 108 127 149 163 163 167 172 172 183 203 228 228 252
nan nan nan nan nan nan nan nan nan nan nan nan nan nan nan nan nan nan nan nan nan nan nan nan nan nan nan nan nan nan nan nan nan nan nan nan nan nan 2 26 26 33 38 49 49 60 75 86 86 87 83 79 63 63 37 14 14 2 2 2 2 3 7 14 14 23 34 42 60 60 71 90 121 121 134 147 148 148 141 140 140 146 172 196 196 227
nan nan nan nan nan nan nan nan nan nan nan nan nan nan nan nan nan nan 0 nan nan nan nan nan nan nan nan nan nan nan nan nan 1 1 16 2 23 23 11 5 5 2 26 41 41 52 65 73 73 71 68 53 33 33 15 3 3 1 1 2 2 4 8 15 15 27 36 49 65 65 76 101 125 125 130 133 129 129 124 121 121 121 141 166 166 196
nan nan nan nan nan nan nan nan nan nan nan nan 2 2 1 nan nan nan nan nan nan nan nan nan nan nan nan nan nan nan nan nan nan nan nan 1 13 13 19 17 17 22 31 37 37 38 38 47 47 46 38 25 11 11 2 1 1 1 1 2 2 5 10 19 19 31 39 55 71 71 88 115 125 125 118 114 109 109 108 105 105 116 124 144 144 175
nan nan nan nan nan nan nan nan nan nan 0 1 1 1 nan nan nan nan nan nan nan nan nan nan nan nan nan nan nan nan nan nan nan nan nan nan nan nan 3 6 6 17 21 25 25 23 29 34 34 31 14 1 2 2 0 0 0 2 2 4 4 7 14 24 24 34 45 61 72 72 97 107 109 109 95 93 95 95 96 103 103 110 115 129 129 153
nan nan nan nan nan nan nan 0 1 1 0 0 nan nan nan nan nan nan nan nan nan nan nan nan nan nan nan nan nan nan nan nan nan nan nan nan nan nan nan nan nan nan nan nan nan nan 6 17 17 12 5 0 0 0 1 1 1 2 3 5 5 9 19 30 30 37 54 69 78 78 93 85 80 80 79 80 83 83 88 94 94 97 102 118 118 133
nan nan nan nan nan 0 nan nan 1 1 nan nan nan nan nan nan nan nan nan nan nan nan nan nan nan nan nan nan nan nan nan nan nan nan nan nan nan nan nan nan nan nan nan nan nan nan 1 0 0 nan 1 0 nan nan 0 1 1 2 4 8 8 18 26 32 32 47 55 75 78 78 72 67 65 65 67 69 73 73 76 74 74 80 84 100 100 122
nan nan nan nan nan nan nan 0 1 1 nan nan nan nan nan 1 nan nan nan nan nan nan nan nan nan 1 0 nan nan nan nan nan nan nan nan nan nan nan nan nan nan nan nan nan nan nan nan nan nan nan nan nan nan nan nan nan nan 5 9 15 15 22 29 38 38 52 60 68 65 65 59 55 53 53 59 58 62 62 64 63 63 70 77 90 90 116
nan nan 1 0 0 2 3 1 1 1 0 nan nan nan 0 0 nan nan nan nan nan nan nan 2 2 2 0 nan nan nan nan nan 0 0 nan nan 1 1 nan 0 0 0 nan nan nan nan nan nan nan nan nan nan 0 0 1 2 2 9 13 20 20 28 35 44 44 53 60 60 54 54 49 48 48 48 48 49 49 49 47 54 54 61 75 89 89 110
1 3 5 7 7 8 5 3 0 0 1 1 0 0 nan nan nan nan nan nan nan nan 9 12 12 2 0 nan 1 1 0 8 28 28 16 4 9 9 5 3 3 1 0 nan nan nan nan nan nan nan nan nan 1 1 2 4 4 12 18 27 27 35 43 51 51 56 58 52 46 46 45 41 43 43 43 41 37 37 38 45 45 56 76 94 94 114
6 6 5 5 5 6 5 3 1 1 1 0 nan nan nan nan nan nan nan 1 1 5 5 6 6 3 3 23 22 22 21 23 14 14 21 26 6 6 2 6 6 8 1 nan nan nan nan nan nan nan nan 2 3 3 4 8 8 14 22 32 32 40 46 50 50 55 51 43 39 39 37 40 40 40 38 35 30 30 33 39 39 54 75 95 95 118
7 7 4 2 2 2 3 3 1 1 nan nan nan nan nan nan nan nan 1 12 12 13 11 9 9 10 15 31 60 60 43 18 6 6 12 20 6 6 2 6 6 8 2 nan nan nan nan nan nan nan 4 4 5 5 7 11 11 16 27 36 36 45 48 49 49 48 45 39 38 38 37 36 33 33 28 29 28 28 32 40 40 55 75 94 94 113
5 5 4 2 2 3 5 5 1 1 nan nan 1 1 0 nan 0 0 20 26 26 17 18 13 13 22 30 47 50 50 41 24 5 5 9 6 4 4 2 5 5 3 2 nan nan nan nan nan nan nan 0 2 5 5 6 11 11 20 30 41 41 47 47 43 43 45 42 39 38 38 35 33 28 28 27 29 32 32 39 48 48 64 84 100 100 119
5 4 6 4 4 2 5 3 1 1 4 10 9 9 10 6 10 10 12 21 21 24 28 27 27 27 36 35 16 16 5 9 10 10 7 2 nan nan nan nan nan 2 2 nan nan nan nan nan nan nan nan 1 5 5 8 14 14 23 35 41 41 45 42 40 40 37 39 42 37 37 30 26 24 24 24 28 33 33 44 58 58 80 94 110 110 116
4 2 3 4 4 4 9 4 12 12 22 34 25 25 20 9 4 4 4 11 11 18 26 28 28 27 18 7 0 0 1 6 18 18 18 7 nan nan nan nan nan 1 nan nan nan nan nan nan nan nan nan 4 6 6 9 16 16 27 39 41 41 38 37 35 35 36 38 37 35 35 28 23 22 22 25 27 31 31 45 61 61 77 98 108 108 113
4 1 2 4 4 5 6 5 16 16 45 53 50 50 25 7 1 1 4 14 14 22 24 13 13 11 9 5 5 5 5 19 43 43 18 7 nan nan nan nan nan nan nan nan nan nan nan nan nan nan nan 5 6 6 9 14 14 24 32 35 35 34 33 32 32 35 35 33 27 27 25 21 21 21 24 25 30 30 45 63 63 79 96 101 101 106
3 2 2 2 2 6 12 19 32 32 50 50 40 40 25 15 7 7 4 22 22 34 26 16 16 15 13 15 16 16 21 57 40 40 12 4 1 1 nan nan nan nan nan nan nan nan nan nan nan nan nan 2 4 4 8 13 13 20 25 29 29 31 29 30 30 29 28 27 24 24 21 20 20 20 21 24 33 33 48 58 58 77 86 91 91 97
0 1 4 9 9 26 32 43 61 61 54 39 29 29 24 38 41 41 43 27 27 18 15 9 9 7 7 20 9 9 46 18 6 6 4 3 nan nan nan nan nan nan nan nan nan nan nan nan nan nan nan nan 2 2 5 10 10 13 21 22 22 25 25 25 25 25 22 21 19 19 18 17 19 19 21 24 33 33 44 58 58 67 80 84 84 85
20 22 25 39 39 77 97 107 107 107 88 54 47 47 38 36 23 23 5 1 1 1 2 1 1 3 4 3 4 4 38 5 0 0 0 nan nan nan nan nan nan nan nan nan nan nan nan nan nan nan nan nan 0 0 3 5 5 7 13 18 18 20 20 20 20 19 19 17 15 15 15 16 18 18 20 27 37 37 43 48 48 61 70 70 70 66
47 48 60 74 74 78 82 91 99 99 114 99 57 57 38 16 9 9 1 nan nan nan 0 1 1 3 7 3 10 10 32 9 nan nan nan nan nan nan nan nan nan nan nan nan nan nan nan nan nan nan nan nan nan nan 1 3 3 6 9 12 12 13 14 15 15 15 15 13 12 12 13 14 15 15 18 26 36 36 46 51 51 57 62 59 59 55
19 20 28 37 37 43 54 66 75 75 71 75 77 77 39 7 4 4 1 0 0 nan 6 6 6 8 13 11 20 20 58 14 nan nan nan nan nan nan nan nan nan nan nan nan nan nan 0 nan nan nan nan nan nan nan nan 2 2 4 5 7 7 7 9 11 11 12 11 10 10 10 10 10 12 12 16 23 33 33 38 48 48 52 50 30 30 12
4 3 6 15 15 25 40 44 47 47 45 47 57 57 34 8 9 9 5 3 3 5 12 15 15 16 21 19 30 30 64 18 1 1 nan nan nan nan nan nan nan nan nan nan nan nan nan nan nan nan nan nan nan nan nan 0 0 1 2 3 3 4 5 7 7 8 7 7 6 6 6 7 10 10 12 17 25 25 31 42 42 47 30 22 22 9
0 2 4 7 7 10 15 8 18 18 30 34 41 41 31 10 10 10 9 10 10 10 13 15 15 15 21 21 25 25 34 8 nan nan nan nan nan nan nan nan nan nan nan nan nan nan nan nan nan nan nan nan nan nan nan nan nan nan nan 1 1 1 2 5 5 5 5 4 3 3 4 6 8 8 12 17 23 23 29 37 37 30 16 11 11 11
nan nan nan nan nan nan nan nan 3 3 20 31 30 30 22 6 9 9 6 5 5 8 9 10 10 12 26 26 17 17 17 3 nan nan nan nan 0 0 0 nan nan nan nan nan nan nan nan nan nan nan nan nan nan nan nan nan nan nan nan nan nan nan 1 3 3 3 2 2 2 2 3 5 9 9 13 18 25 25 31 38 38 33 12 10 10 10
nan nan nan nan nan nan nan nan nan nan nan nan 3 3 17 20 9 9 5 7 7 11 13 13 13 16 21 19 13 13 4 1 23 23 13 1 1 1 nan nan nan nan nan nan nan 0 nan nan nan nan nan nan nan nan nan nan nan nan nan nan nan nan nan nan nan nan nan nan 0 0 3 7 11 11 17 23 27 27 34 46 46 43 21 7 7 5
nan nan nan nan nan nan nan nan nan nan nan 0 4 4 8 15 16 16 10 9 9 10 14 16 16 12 9 11 8 8 4 7 41 41 21 1 1 1 0 nan nan nan nan nan nan nan nan nan nan nan nan nan nan nan nan nan nan nan nan nan nan nan nan nan nan nan nan nan nan nan 3 7 14 14 19 22 31 31 37 46 46 51 42 5 5 6
nan nan nan nan nan nan nan nan nan nan 0 3 8 8 15 17 15 15 12 8 8 5 6 5 5 5 2 2 2 2 3 7 23 23 10 1 1 1 1 nan nan nan 0 nan nan 0 nan nan nan nan nan nan nan nan nan nan nan nan nan nan nan nan nan nan nan nan nan nan nan nan nan nan 11 11 14 22 27 27 33 40 40 45 45 25 25 13
nan 0 nan nan nan nan nan nan nan nan 0 5 9 9 15 17 13 13 8 5 5 0 1 3 3 1 1 1 2 2 2 nan 6 6 6 1 1 1 1 nan nan nan 0 1 1 0 0 nan nan nan nan nan nan nan nan nan nan nan nan nan nan nan nan nan nan nan nan nan nan nan nan nan nan nan 2 14 22 22 28 30 30 36 38 44 44 28
0 0 0 nan nan nan nan nan nan nan 3 5 11 11 14 14 10 10 5 0 0 0 2 1 1 0 nan 0 2 2 3 nan nan nan 1 nan 0 0 0 nan nan nan 0 1 1 0 0 nan nan nan nan nan nan nan nan nan nan nan nan nan nan nan nan nan nan nan nan nan nan nan nan nan nan nan 0 15 20 20 21 23 23 27 32 36 36 31
2 0 0 nan nan nan nan nan 0 0 2 5 10 10 12 10 9 9 1 nan nan 0 0 0 0 nan 1 0 nan nan nan nan nan nan nan nan nan nan nan nan nan nan nan nan nan 0 0 nan nan nan nan nan nan nan nan nan nan nan nan nan nan nan nan nan nan nan nan nan nan nan nan nan nan nan 1 13 11 11 12 15 15 17 24 25 25 24
4 2 0 nan nan nan nan 1 2 2 5 7 6 6 7 9 5 5 nan nan nan nan nan nan nan nan 0 3 nan nan nan nan nan nan nan nan nan nan nan nan nan nan nan nan nan nan nan nan nan nan nan nan nan nan nan nan nan nan nan nan nan nan nan nan nan nan nan nan nan nan 1 nan nan nan nan 0 nan nan nan nan nan 4 10 12 12 14
3 1 0 1 1 1 1 1 3 3 5 4 3 3 7 10 10 10 nan nan nan nan nan nan nan nan nan nan nan nan nan nan nan nan nan nan nan nan nan nan nan nan nan nan nan nan nan nan nan nan nan nan nan nan nan nan nan nan nan nan nan nan nan nan nan nan nan nan 0 0 nan nan nan nan nan nan nan nan nan nan nan 0 0 nan nan 2
7 3 2 6 6 4 4 4 3 3 3 4 10 10 11 8 3 3 nan nan nan nan nan nan nan nan nan nan nan nan nan nan nan nan nan nan nan nan nan nan nan nan nan nan nan nan nan 0 0 0 2 0 nan nan nan nan nan nan nan nan nan nan nan nan nan nan nan nan nan nan nan nan nan nan nan nan nan nan nan nan nan nan nan nan nan nan
13 10 8 7 7 7 8 6 6 6 7 5 7 7 8 5 3 3 1 0 0 0 nan nan nan nan nan nan nan nan 0 nan nan nan nan nan nan nan nan nan nan nan nan 0 0 1 3 2 2 2 2 2 0 0 nan nan nan nan 0 nan nan nan nan nan nan nan nan nan nan nan nan 0 0 0 nan nan nan nan nan nan nan nan nan nan nan nan
15 14 15 12 12 9 8 7 16 16 11 1 6 6 5 1 0 0 2 5 5 5 4 0 0 nan nan nan 5 5 16 nan nan nan nan nan nan nan nan nan nan 1 5 3 3 2 1 3 3 2 2 2 0 0 nan nan nan nan nan nan nan nan nan nan nan nan nan nan nan nan 2 nan nan nan nan nan nan nan nan nan nan nan 0 nan nan nan
8 10 15 15 15 9 10 15 22 22 8 1 4 4 1 nan 0 0 2 8 8 7 2 nan nan nan nan 1 0 0 1 0 nan nan nan nan nan nan nan 0 0 2 1 1 1 0 1 2 2 1 1 1 0 0 nan nan nan nan nan nan nan nan nan nan nan nan nan nan nan nan nan nan nan nan nan nan nan nan nan nan nan 1 1 nan nan nan
7 7 10 10 10 10 12 17 13 13 2 1 3 3 0 nan 0 0 5 9 9 5 4 nan nan nan 2 1 nan nan nan nan nan nan nan 5 2 2 0 2 2 0 nan nan nan nan nan 0 0 nan nan 0 nan nan nan nan nan nan nan nan nan nan nan nan nan nan nan nan nan nan nan nan nan nan nan nan nan nan nan nan nan nan nan nan nan nan
3 4 7 12 12 15 12 17 6 6 1 4 5 5 0 nan nan nan 2 2 2 7 3 nan nan 0 0 0 nan nan nan nan nan nan nan 3 21 21 5 nan nan nan nan nan nan nan nan nan nan nan nan nan nan nan nan nan nan nan nan nan nan nan nan nan nan nan nan nan nan nan nan nan nan nan nan nan nan nan nan nan nan nan nan nan nan nan
3 5 8 11 11 14 25 27 5 5 7 12 5 5 1 nan nan nan 1 5 5 5 0 nan nan 1 0 nan nan nan nan nan nan nan nan nan nan nan nan nan nan nan nan nan nan nan nan nan nan nan nan nan nan nan nan nan nan nan nan nan nan nan nan nan nan nan nan nan nan nan nan nan nan nan nan nan nan nan nan nan nan nan nan nan nan nan
4 6 8 11 11 14 26 30 13 13 8 10 5 5 2 nan nan nan 6 6 6 5 2 0 0 nan nan nan nan nan nan nan nan nan nan nan nan nan nan nan nan nan nan nan nan nan nan nan nan nan nan nan nan nan nan nan nan nan nan nan nan nan nan nan nan nan nan nan nan nan nan nan nan nan nan nan nan nan nan nan nan nan nan nan nan nan
8 9 12 14 14 18 28 27 11 11 11 8 5 5 2 0 0 0 11 9 9 5 4 0 0 nan nan nan nan nan nan nan nan nan nan nan nan nan nan nan nan nan nan nan nan nan nan nan nan nan nan nan nan nan nan nan nan nan nan nan nan nan nan nan nan nan nan nan nan nan nan nan nan nan nan nan nan nan nan nan nan nan nan nan nan nan
7 10 13 13 13 16 25 24 7 7 12 10 7 7 2 0 10 10 7 1 1 nan 2 nan nan nan nan nan nan nan 0 nan nan nan nan nan nan nan nan nan nan nan nan nan nan nan nan nan nan nan nan nan nan nan nan nan nan nan nan nan nan nan nan nan nan nan nan nan nan nan nan nan nan nan nan nan nan nan nan nan nan nan nan nan nan 0
8 9 11 11 11 11 18 18 12 12 13 10 6 6 2 nan 0 0 2 0 0 1 1 nan nan nan nan nan nan nan nan nan nan nan nan nan nan nan nan nan nan nan nan nan nan nan nan nan nan nan nan nan nan nan nan nan nan nan nan nan nan nan nan nan nan nan nan nan nan nan nan nan nan nan nan nan nan nan nan nan nan nan nan nan nan 2
10 8 9 10 10 13 16 17 16 16 12 9 7 7 4 2 0 0 1 1 1 2 0 nan nan nan nan nan nan nan nan nan nan nan nan nan 0 0 nan nan nan nan nan nan nan nan nan nan nan nan nan 1 nan nan nan nan nan nan nan nan nan nan nan nan nan nan nan nan nan nan nan nan nan nan nan nan nan nan nan nan nan nan nan nan nan 7
CIN
nan nan nan nan nan nan nan nan nan nan nan nan nan nan nan nan nan nan nan nan nan nan nan nan nan nan nan nan -0 -0 -0 -0 -0 -0 -0 -0 -0 -0 -0 -0 -0 -0 -0 -0 -0 -0 -0 -0 -0 -0 -0 -0 -0 -0 -0 -0 -0 -0 -0 -0 -0 -0 -0 -0 -0 -0 -0 -0 -0 -0 -0 -0 -0 -0 -0 -0 -0 -0 -0 -0 -0 -0 -0 -0 -0 -0
nan nan nan nan nan nan nan nan nan nan nan nan nan nan nan nan nan nan nan nan nan nan nan nan nan nan nan nan -0 -0 -0 -0 -0 -0 -0 -0 -0 -0 -0 -0 -0 -0 -0 -0 -0 -0 -0 -0 -0 -0 -0 -0 -0 -0 -0 -0 -0 -0 -0 -0 -0 -0 -0 -0 -0 -0 -0 -0 -0 -0 -0 -0 -0 -0 -0 -0 -0 -0 -0 -0 -0 -0 -0 -0 -0 -0
nan nan nan nan nan nan nan nan nan nan nan nan nan nan nan nan nan nan nan nan nan nan nan nan nan nan nan nan -0 -0 -0 -0 -0 -0 -0 -0 -0 -0 -0 -0 -0 -0 -0 -0 -0 -0 -0 -0 -0 -0 -0 -0 -0 -0 -0 -0 -0 -0 -0 -0 -0 -0 -0 -0 -0 -0 -0 -0 -0 -0 -0 -0 -0 -0 -0 -0 -0 -0 -0 -0 -0 -0 -0 -0 -0 -0
nan nan nan nan nan nan nan nan nan nan nan nan nan nan nan nan nan nan nan nan nan nan nan nan nan nan nan nan -0 -0 -0 -0 -0 -0 -0 -0 -0 -0 -0 -0 -0 -0 -0 -0 -0 -0 -0 -0 -0 -0 -0 -0 -0 -0 -0 -0 -0 -0 -0 -0 -0 -0 -0 -0 -0 -0 -0 -0 -0 -0 -0 -0 -0 -0 -0 -0 -0 -0 -0 -0 -0 -0 -0 -0 -0 -0
nan nan nan nan nan nan nan nan nan nan nan nan nan nan nan nan nan nan nan nan nan nan nan nan nan nan nan nan -9 -9 -0 -0 -0 -0 -0 -0 -0 -0 -0 -0 -0 -0 -0 -0 -0 -0 -0 -0 -0 -0 -0 -0 -0 -0 -0 -0 -0 -0 -0 -0 -0 -0 -0 -0 -0 -0 -0 -0 -0 -0 -0 -0 -0 -0 -0 -0 -0 -0 -0 -0 -0 -0 -0 -0 -0 -0
nan nan nan nan nan nan nan nan nan nan nan nan nan nan nan nan nan nan nan nan nan nan nan nan nan nan nan nan -10 -10 -0 -0 -0 -0 -0 -0 -0 -0 -0 -0 -0 -0 -0 -0 -0 -0 -0 -0 -0 -0 -0 -0 -0 -0 -0 -0 -0 -0 -0 -0 -0 -0 -0 -0 -0 -0 -0 -0 -0 -0 -0 -0 -0 -0 -0 -0 -0 -0 -0 -0 -0 -0 -0 -0 -0 -0
nan nan nan nan nan nan nan nan nan nan nan nan nan nan nan nan nan nan nan nan nan nan nan nan nan nan nan -16 -1 -1 -0 -0 -0 -0 -0 -0 -0 -0 -0 -0 -0 -0 -0 -0 -0 -0 -0 -0 -0 -0 -0 -0 -0 -0 -0 -0 -0 -0 -0 -0 -0 -0 -0 -0 -0 -0 -0 -0 -0 -0 -0 -0 -0 -0 -0 -0 -0 -0 -0 -0 -0 -0 -0 -0 -0 -0
nan nan nan nan nan nan nan nan nan nan nan nan nan nan nan nan nan nan nan -61 -61 nan nan nan nan nan nan nan nan nan nan nan nan nan nan -0 -0 -0 -0 -0 -0 -0 -0 -0 -0 -0 -0 -0 -0 -0 -0 -0 -0 -0 -0 -0 -0 -0 -0 -0 -0 -0 -0 -0 -0 -0 -0 -0 -0 -0 -0 -0 -0 -0 -0 -0 -0 -0 -0 -0 -0 -0 -0 -0 -0 -0
nan nan nan nan nan nan nan nan nan nan nan nan nan nan nan nan nan nan nan nan nan nan nan nan nan nan nan nan nan nan nan nan nan nan nan nan nan nan -1 -0 -0 -0 -0 -0 -0 -0 -0 -0 -0 -0 -0 -0 -0 -0 -0 -0 -0 -0 -0 -0 -0 -0 -0 -0 -0 -0 -0 -0 -0 -0 -0 -0 -0 -0 -0 -0 -0 -0 -0 -0 -0 -0 -0 -0 -0 -0
nan nan nan nan nan nan nan nan nan nan nan nan nan nan nan nan nan nan -23 nan nan nan nan nan nan nan nan nan nan nan nan nan -0 -0 -0 -0 -0 -0 -0 -0 -0 -1 -0 -0 -0 -0 -0 -0 -0 -0 -0 -0 -0 -0 -0 -0 -0 -0 -0 -0 -0 -0 -0 -0 -0 -0 -0 -0 -0 -0 -0 -0 -0 -0 -0 -0 -0 -0 -0 -0 -0 -0 -0 -0 -0 -0
nan nan nan nan nan nan nan nan nan nan nan nan -29 -29 -36 nan nan nan nan nan nan nan nan nan nan nan nan nan nan nan nan nan nan nan nan -1 -0 -0 -0 -0 -0 -0 -0 -0 -0 -0 -0 -0 -0 -0 -0 -0 -0 -0 -0 -0 -0 -0 -0 -0 -0 -0 -0 -0 -0 -0 -0 -0 -0 -0 -0 -0 -0 -0 -0 -0 -0 -0 -0 -0 -0 -0 -0 -0 -0 -0
nan nan nan nan nan nan nan nan nan nan -37 -28 -30 -30 nan nan nan nan nan nan nan nan nan nan nan nan nan nan nan nan nan nan nan nan nan nan nan nan -11 -13 -13 -5 -1 -0 -0 -0 -0 -0 -0 -0 -0 -0 -0 -0 -0 -0 -0 -0 -0 -0 -0 -0 -0 -0 -0 -0 -0 -0 -0 -0 -0 -0 -0 -0 -0 -0 -0 -0 -0 -0 -0 -0 -0 -0 -0 -0
nan nan nan nan nan nan nan -23 -22 -22 -33 -27 nan nan nan nan nan nan nan nan nan nan nan nan nan nan nan nan nan nan nan nan nan nan nan nan nan nan nan nan nan nan nan nan nan nan -0 -0 -0 -0 -0 -0 -0 -0 -0 -0 -0 -0 -0 -0 -0 -0 -0 -0 -0 -0 -0 -0 -0 -0 -0 -0 -0 -0 -0 -0 -0 -0 -0 -0 -0 -0 -0 -0 -0 -0
nan nan nan nan nan -15 nan nan -12 -12 nan nan nan nan nan nan nan nan nan nan nan nan nan nan nan nan nan nan nan nan nan nan nan nan nan nan nan nan nan nan nan nan nan nan nan nan -9 -6 -6 nan -0 -0 nan nan -0 -0 -0 -0 -0 -0 -0 -0 -0 -0 -0 -0 -0 -0 -0 -0 -0 -0 -0 -0 -0 -0 -0 -0 -0 -0 -0 -0 -0 -0 -0 -0
nan nan nan nan nan nan nan -11 -10 -10 nan nan nan nan nan -44 nan nan nan nan nan nan nan nan nan -8 -3 nan nan nan nan nan nan nan nan nan nan nan nan nan nan nan nan nan nan nan nan nan nan nan nan nan nan nan nan nan nan -0 -0 -0 -0 -0 -0 -0 -0 -0 -0 -0 -0 -0 -0 -0 -0 -0 -0 -0 -0 -0 -0 -0 -0 -0 -0 -0 -0 -0
nan nan -12 -12 -12 -9 -7 -8 -8 -8 -12 nan nan nan -37 -40 nan nan nan nan nan nan nan -10 -10 -3 -3 nan nan nan nan nan -9 -9 nan nan -23 -23 nan -16 -16 -17 nan nan nan nan nan nan nan nan nan nan -0 -0 -0 -0 -0 -0 -0 -0 -0 -0 -0 -0 -0 -0 -0 -0 -0 -0 -0 -0 -0 -0 -0 -0 -0 -0 -0 -0 -0 -0 -0 -0 -0 -0
-13 -10 -9 -6 -6 -5 -7 -8 -14 -14 -16 -27 -41 -41 nan nan nan nan nan nan nan nan -12 -3 -3 -1 -2 nan -10 -10 -10 -3 -1 -1 -2 -2 -6 -6 -12 -14 -14 -17 -14 nan nan nan nan nan nan nan nan nan -0 -0 -0 -0 -0 -0 -0 -0 -0 -0 -0 -0 -0 -0 -0 -0 -0 -0 -0 -0 -0 -0 -0 -0 -0 -0 -0 -0 -0 -0 -0 -0 -0 -0
-12 -9 -7 -7 -7 -8 -8 -7 -12 -12 -22 -34 nan nan nan nan nan nan nan -26 -26 -15 -3 -1 -1 -2 -5 -2 -5 -5 -3 -0 -0 -0 -0 -1 -4 -4 -9 -9 -9 -6 -10 nan nan nan nan nan nan nan nan -0 -0 -0 -0 -0 -0 -0 -0 -0 -0 -0 -0 -0 -0 -0 -0 -0 -0 -0 -0 -0 -0 -0 -0 -0 -0 -0 -0 -0 -0 -0 -0 -0 -0 -0
-9 -10 -10 -12 -12 -14 -12 -12 -15 -15 nan nan nan nan nan nan nan nan -35 -20 -20 -6 -0 -0 -0 -1 -1 -1 -5 -5 -2 -0 -0 -0 -0 -2 -7 -7 -8 -8 -8 -5 -10 nan nan nan nan nan nan nan -0 -0 -0 -0 -0 -0 -0 -0 -0 -0 -0 -0 -0 -0 -0 -0 -0 -0 -0 -0 -0 -0 -0 -0 -0 -0 -0 -0 -0 -0 -0 -0 -0 -0 -0 -0
-7 -10 -10 -14 -14 -12 -10 -9 -16 -16 nan nan -29 -29 -25 nan -22 -22 -10 -5 -5 -2 -1 -1 -1 -1 -1 -1 -5 -5 -10 -6 -3 -3 -2 -5 -5 -5 -4 -4 -4 -8 -10 nan nan nan nan nan nan nan -5 -0 -0 -0 -0 -0 -0 -0 -0 -0 -0 -0 -0 -0 -0 -0 -0 -0 -0 -0 -0 -0 -0 -0 -0 -0 -0 -0 -0 -0 -0 -0 -0 -0 -0 -0
-7 -8 -6 -12 -12 -12 -6 -8 -16 -16 -14 -18 -24 -24 -18 -11 -3 -3 -1 -0 -0 -0 -1 -1 -1 -1 -2 -3 -9 -9 -21 -15 -9 -9 -7 -6 nan nan nan nan nan -9 -9 nan nan nan nan nan nan nan nan -0 -0 -0 -0 -0 -0 -0 -0 -0 -0 -0 -0 -0 -0 -0 -0 -0 -0 -0 -0 -0 -0 -0 -0 -0 -0 -0 -0 -0 -0 -0 -0 -0 -0 -0
-10 -10 -13 -15 -15 -11 -4 -13 -8 -8 -11 -13 -11 -11 -6 -1 -0 -0 -0 -0 -0 -0 -1 -1 -1 -3 -7 -9 -18 -18 -29 -21 -8 -8 -5 -5 nan nan nan nan nan -5 nan nan nan nan nan nan nan nan nan -0 -0 -0 -0 -0 -0 -0 -0 -0 -0 -0 -0 -0 -0 -0 -0 -0 -0 -0 -0 -0 -0 -0 -0 -0 -0 -0 -0 -0 -0 -0 -0 -0 -0 -0
-15 -14 -16 -19 -19 -15 -14 -22 -16 -16 -7 -4 -1 -1 -5 -0 -0 -0 -0 -0 -0 -1 -2 -7 -7 -14 -17 -17 -24 -24 -35 -25 -8 -8 -5 -5 nan nan nan nan nan nan nan nan nan nan nan nan nan nan nan -0 -0 -0 -0 -0 -0 -0 -0 -0 -0 -0 -0 -0 -0 -0 -0 -0 -0 -0 -0 -0 -0 -0 -0 -0 -0 -0 -0 -0 -0 -0 -0 -0 -0 -0
-21 -25 -30 -26 -26 -24 -18 -12 -8 -8 -3 -2 -2 -2 -2 -1 -1 -1 -2 -2 -2 -2 -8 -16 -16 -18 -22 -19 -20 -20 -25 -10 -1 -1 -12 -15 -18 -18 nan nan nan nan nan nan nan nan nan nan nan nan nan -0 -0 -0 -0 -0 -0 -0 -0 -0 -0 -0 -0 -0 -0 -0 -0 -0 -0 -0 -0 -0 -0 -0 -0 -0 -0 -0 -0 -0 -0 -0 -0 -0 -0 -0
-26 -21 -16 -14 -14 -12 -11 -10 -5 -5 -6 -11 -13 -13 -10 -4 -3 -3 -4 -9 -9 -15 -21 -26 -26 -22 -27 -7 -24 -24 -23 -16 -25 -25 -25 -18 nan nan nan nan nan nan nan nan nan nan nan nan nan nan nan nan -0 -0 -0 -0 -0 -0 -0 -0 -0 -0 -0 -0 -0 -0 -0 -0 -0 -0 -0 -0 -0 -0 -0 -0 -0 -0 -0 -0 -0 -0 -0 -0 -0 -0
-6 -4 -3 -1 -1 -0 -0 -0 -0 -0 -4 -16 -20 -20 -20 -16 -15 -15 -19 -26 -26 -31 -34 -25 -25 -16 -20 -20 -19 -19 -19 -34 -39 -39 -36 nan nan nan nan nan nan nan nan nan nan nan nan nan nan nan nan nan -0 -0 -0 -0 -0 -0 -0 -0 -0 -0 -0 -0 -0 -0 -0 -0 -0 -0 -0 -0 -0 -0 -0 -0 -0 -0 -0 -0 -0 -0 -0 -0 -0 -0
-0 -0 -0 -0 -0 -0 -0 -0 -0 -0 -0 -0 -15 -15 -24 -24 -11 -11 -13 nan nan nan -20 -15 -15 -12 -9 -13 -11 -11 -15 -23 nan nan nan nan nan nan nan nan nan nan nan nan nan nan nan nan nan nan nan nan nan nan -0 -0 -0 -0 -0 -0 -0 -0 -0 -0 -0 -0 -0 -0 -0 -0 -0 -0 -0 -0 -0 -0 -0 -0 -0 -0 -0 -0 -0 -0 -0 -0
-0 -0 -0 -0 -0 -0 -0 -0 -0 -0 -0 -0 -0 -0 -1 -15 -7 -7 -8 -14 -14 nan -4 -4 -4 -5 -5 -7 -6 -6 -10 -15 nan nan nan nan nan nan nan nan nan nan nan nan nan nan -0 nan nan nan nan nan nan nan nan -0 -0 -0 -0 -0 -0 -0 -0 -0 -0 -0 -0 -0 -0 -0 -0 -0 -0 -0 -0 -0 -0 -0 -0 -0 -0 -0 -0 -0 -0 -5
-1 -1 -0 -0 -0 -0 -0 -0 -0 -0 -0 -0 -0 -0 -0 -10 -2 -2 -4 -7 -7 -3 -0 -0 -0 -1 -2 -3 -6 -6 -6 -0 -1 -1 nan nan nan nan nan nan nan nan nan nan nan nan nan nan nan nan nan nan nan nan nan -0 -0 -0 -0 -0 -0 -0 -0 -0 -0 -0 -0 -0 -0 -0 -0 -0 -0 -0 -0 -0 -0 -0 -0 -0 -0 -0 -0 -0 -0 -7
-13 -2 -0 -0 -0 -0 -0 -5 -0 -0 -0 -0 -0 -0 -0 -10 -4 -4 -1 -1 -1 -0 -0 -0 -0 -0 -1 -4 -6 -6 -4 -1 nan nan nan nan nan nan nan nan nan nan nan nan nan nan nan nan nan nan nan nan nan nan nan nan nan nan nan -0 -0 -0 -0 -0 -0 -0 -0 -0 -0 -0 -0 -0 -0 -0 -0 -0 -0 -0 -0 -0 -0 -0 -0 -7 -7 -8
nan nan nan nan nan nan nan nan -16 -16 -0 -0 -0 -0 -2 -14 -2 -2 -2 -1 -1 -0 -0 -0 -0 -0 -1 -1 -3 -3 -4 -10 nan nan nan nan -2 -2 -3 nan nan nan nan nan nan nan nan nan nan nan nan nan nan nan nan nan nan nan nan nan nan nan -0 -0 -0 -0 -0 -0 -0 -0 -0 -0 -0 -0 -0 -0 -0 -0 -0 -0 -0 -0 -5 -8 -8 -8
nan nan nan nan nan nan nan nan nan nan nan nan -20 -20 -1 -0 -2 -2 -2 -2 -2 -0 -0 -0 -0 -0 -0 -0 -0 -0 -1 -4 -0 -0 -0 -1 -3 -3 nan nan nan nan nan nan nan -8 nan nan nan nan nan nan nan nan nan nan nan nan nan nan nan nan nan nan nan nan nan nan -0 -0 -0 -0 -0 -0 -0 -0 -0 -0 -0 -0 -0 -0 -0 -4 -4 -2
nan nan nan nan nan nan nan nan nan nan nan -19 -9 -9 -9 -3 -1 -1 -2 -2 -2 -1 -0 -0 -0 -0 -0 -0 -0 -0 -1 -4 -1 -1 -0 -2 -2 -2 -6 nan nan nan nan nan nan nan nan nan nan nan nan nan nan nan nan nan nan nan nan nan nan nan nan nan nan nan nan nan nan nan -0 -0 -0 -0 -0 -0 -0 -0 -0 -0 -0 -0 -0 -3 -3 -1
nan nan nan nan nan nan nan nan nan nan -14 -6 -3 -3 -2 -4 -4 -4 -2 -2 -2 -1 -0 -0 -0 -0 -0 -0 -0 -0 -2 -4 -0 -0 -0 -4 -2 -2 -3 nan nan nan -6 nan nan -5 nan nan nan nan nan nan nan nan nan nan nan nan nan nan nan nan nan nan nan nan nan nan nan nan nan nan -0 -0 -0 -0 -0 -0 -0 -0 -0 -0 -0 -0 -0 -0
nan -17 nan nan nan nan nan nan nan nan -6 -3 -3 -3 -3 -3 -4 -4 -4 -2 -2 -1 -0 -0 -0 -0 -0 -0 -0 -0 -1 nan -0 -0 -0 -3 -2 -2 -1 nan nan nan -4 -3 -3 -6 -5 nan nan nan nan nan nan nan nan nan nan nan nan nan nan nan nan nan nan nan nan nan nan nan nan nan nan nan -0 -0 -0 -0 -0 -0 -0 -0 -0 -0 -0 -0
-17 -18 -18 nan nan nan nan nan nan nan -2 -4 -4 -4 -4 -4 -4 -4 -3 -8 -8 -0 -0 -0 -0 -2 nan -2 -1 -1 -1 nan nan nan -2 nan -3 -3 -2 nan nan nan -3 -2 -2 -4 -4 nan nan nan nan nan nan nan nan nan nan nan nan nan nan nan nan nan nan nan nan nan nan nan nan nan nan nan -0 -0 -0 -0 -0 -0 -0 -0 -0 -0 -0 -0
-10 -15 -16 nan nan nan nan nan -3 -3 -3 -4 -4 -4 -4 -5 -5 -5 -8 nan nan -1 -0 -0 -0 nan -2 -8 nan nan nan nan nan nan nan nan nan nan nan nan nan nan nan nan nan -3 -3 nan nan nan nan nan nan nan nan nan nan nan nan nan nan nan nan nan nan nan nan nan nan nan nan nan nan nan -0 -0 -0 -0 -0 -0 -0 -0 -0 -0 -0 -0
-3 -7 -10 nan nan nan nan -2 -1 -1 -1 -2 -5 -5 -4 -6 -12 -12 nan nan nan nan nan nan nan nan -12 -5 nan nan nan nan nan nan nan nan nan nan nan nan nan nan nan nan nan nan nan nan nan nan nan nan nan nan nan nan nan nan nan nan nan nan nan nan nan nan nan nan nan nan -0 nan nan nan nan -0 nan nan nan nan nan -0 -0 -0 -0 -0
-0 -4 -6 -5 -5 -5 -2 -2 -2 -2 -1 -5 -8 -8 -6 -5 -6 -6 nan nan nan nan nan nan nan nan nan nan nan nan nan nan nan nan nan nan nan nan nan nan nan nan nan nan nan nan nan nan nan nan nan nan nan nan nan nan nan nan nan nan nan nan nan nan nan nan nan nan -0 -0 nan nan nan nan nan nan nan nan nan nan nan -0 -0 nan nan -0
-0 -3 -4 -0 -0 -3 -2 -1 -4 -4 -7 -10 -7 -7 -3 -3 -8 -8 nan nan nan nan nan nan nan nan nan nan nan nan nan nan nan nan nan nan nan nan nan nan nan nan nan nan nan nan nan -6 -6 -6 -0 -2 nan nan nan nan nan nan nan nan nan nan nan nan nan nan nan nan nan nan nan nan nan nan nan nan nan nan nan nan nan nan nan nan nan nan
-0 -0 -1 -2 -2 -1 -0 -2 -6 -6 -7 -11 -7 -7 -3 -2 -0 -0 -10 -18 -18 -19 nan nan nan nan nan nan nan nan -37 nan nan nan nan nan nan nan nan nan nan nan nan -13 -13 -11 -5 -3 -3 -2 -2 -2 -2 -2 nan nan nan nan -0 nan nan nan nan nan nan nan nan nan nan nan nan -1 -0 -0 nan nan nan nan nan nan nan nan nan nan nan nan
-0 -0 -0 -1 -1 -1 -3 -5 -4 -4 -8 -19 -8 -8 -6 -9 -13 -13 -0 -1 -1 -5 -6 -16 -16 nan nan nan -26 -26 -20 nan nan nan nan nan nan nan nan nan nan -10 -6 -6 -6 -7 -5 -3 -3 -2 -2 -2 -3 -3 nan nan nan nan nan nan nan nan nan nan nan nan nan nan nan nan -0 nan nan nan nan nan nan nan nan nan nan nan -0 nan nan nan
-0 -0 -0 -1 -1 -3 -3 -3 -2 -2 -8 -15 -9 -9 -16 nan -29 -29 -0 -2 -2 -8 -16 nan nan nan nan -16 -28 -28 -37 -60 nan nan nan nan nan nan nan -25 -25 -19 -16 -10 -10 -8 -6 -2 -2 -4 -5 -4 -4 -4 nan nan nan nan nan nan nan nan nan nan nan nan nan nan nan nan nan nan nan nan nan nan nan nan nan nan nan -0 -0 nan nan nan
-0 -0 -1 -3 -3 -5 -4 -2 -3 -3 -11 -11 -6 -6 -24 nan -24 -24 -1 -3 -3 -11 -11 nan nan nan -12 -14 nan nan nan nan nan nan nan -31 -48 -48 -49 -30 -30 -32 nan nan nan nan nan -4 -4 nan nan -7 nan nan nan nan nan nan nan nan nan nan nan nan nan nan nan nan nan nan nan nan nan nan nan nan nan nan nan nan nan nan nan nan nan nan
-3 -2 -0 -1 -1 -0 -3 -1 -8 -8 -6 -5 -2 -2 -25 nan nan nan -2 -9 -9 -7 -10 nan nan -22 -14 -12 nan nan nan nan nan nan nan -22 -1 -1 -31 nan nan nan nan nan nan nan nan nan nan nan nan nan nan nan nan nan nan nan nan nan nan nan nan nan nan nan nan nan nan nan nan nan nan nan nan nan nan nan nan nan nan nan nan nan nan nan
-3 -2 -1 -2 -2 -2 -0 -0 -11 -11 -3 -3 -8 -8 -25 nan nan nan -7 -8 -8 -6 -25 nan nan -11 -9 nan nan nan nan nan nan nan nan nan nan nan nan nan nan nan nan nan nan nan nan nan nan nan nan nan nan nan nan nan nan nan nan nan nan nan nan nan nan nan nan nan nan nan nan nan nan nan nan nan nan nan nan nan nan nan nan nan nan nan
-2 -2 -3 -3 -3 -2 -1 -1 -5 -5 -6 -7 -10 -10 -16 nan nan nan -5 -8 -8 -6 -15 -21 -21 nan nan nan nan nan nan nan nan nan nan nan nan nan nan nan nan nan nan nan nan nan nan nan nan nan nan nan nan nan nan nan nan nan nan nan nan nan nan nan nan nan nan nan nan nan nan nan nan nan nan nan nan nan nan nan nan nan nan nan nan nan
-0 -1 -2 -2 -2 -1 -1 -2 -5 -5 -3 -7 -13 -13 -15 -19 -5 -5 -2 -4 -4 -5 -5 -15 -15 nan nan nan nan nan nan nan nan nan nan nan nan nan nan nan nan nan nan nan nan nan nan nan nan nan nan nan nan nan nan nan nan nan nan nan nan nan nan nan nan nan nan nan nan nan nan nan nan nan nan nan nan nan nan nan nan nan nan nan nan nan
-2 -1 -1 -2 -2 -1 -1 -2 -5 -5 -2 -3 -6 -6 -12 -16 -0 -0 -3 -18 -18 nan -12 nan nan nan nan nan nan nan -8 nan nan nan nan nan nan nan nan nan nan nan nan nan nan nan nan nan nan nan nan nan nan nan nan nan nan nan nan nan nan nan nan nan nan nan nan nan nan nan nan nan nan nan nan nan nan nan nan nan nan nan nan nan nan -21
-3 -3 -2 -2 -2 -2 -1 -2 -2 -2 -1 -2 -5 -5 -8 nan -20 -20 -14 -26 -26 -20 -15 nan nan nan nan nan nan nan nan nan nan nan nan nan nan nan nan nan nan nan nan nan nan nan nan nan nan nan nan nan nan nan nan nan nan nan nan nan nan nan nan nan nan nan nan nan nan nan nan nan nan nan nan nan nan nan nan nan nan nan nan nan nan -16
-1 -2 -2 -2 -2 -1 -1 -2 -1 -1 -1 -2 -4 -4 -7 -15 -21 -21 -17 -17 -17 -11 -14 nan nan nan nan nan nan nan nan nan nan nan nan nan -16 -16 nan nan nan nan nan nan nan nan nan nan nan nan nan -3 nan nan nan nan nan nan nan nan nan nan nan nan nan nan nan nan nan nan nan nan nan nan nan nan nan nan nan nan nan nan nan nan nan -2
Wind_Speed
1 2 3 5 6 6 6 8 8 7 7 6 5 5 5 6 6 7 9 10 10 10 9 9 10 10 11 13 15 16 17 18 18 19 19 19 19 19 19 19 19 19 19 19 19 19 19 19 18 18 18 18 18 18 19 19 19 19 20 20 21 21 21 21 22 22 22 22 23 23 23 23 24 24 24 25 25 25 25 25 24 24 25 25 25 25
2 3 3 6 7 7 6 7 7 7 6 6 6 6 6 6 6 6 7 9 10 10 9 9 9 10 10 11 14 16 17 18 19 19 19 19 19 19 19 19 19 19 19 20 19 19 19 19 18 18 18 18 18 18 18 19 19 19 20 20 21 21 21 21 21 22 22 22 23 23 23 23 24 24 24 24 25 25 24 24 24 24 25 25 25 25
3 3 3 4 6 6 5 6 6 5 6 6 6 6 7 8 8 7 7 8 8 9 9 8 9 9 10 11 13 15 17 18 19 19 20 20 20 19 19 19 19 20 20 20 20 19 19 19 18 18 18 18 18 18 18 19 19 20 20 20 20 20 21 21 21 21 22 22 22 23 23 23 23 23 24 24 24 24 24 24 24 24 25 25 25 25
3 3 4 3 4 5 6 5 5 5 5 6 7 8 9 8 8 7 7 7 8 8 8 9 9 9 8 9 11 14 16 18 18 19 20 20 20 20 20 20 20 20 20 20 19 19 19 18 18 18 18 18 18 18 19 19 19 20 20 20 20 20 20 21 21 21 21 22 22 22 23 23 23 23 23 24 24 24 24 24 24 24 25 25 25 25
3 3 4 3 4 5 5 5 5 5 5 6 7 8 8 7 7 6 6 7 7 8 7 8 8 8 8 7 9 12 16 17 18 19 20 20 20 20 20 20 20 20 19 19 19 19 18 18 18 18 18 18 18 19 19 19 20 20 20 20 20 20 20 21 21 21 21 21 22 22 22 22 23 23 23 23 23 23 23 24 24 24 25 25 25 25
3 3 3 3 4 4 4 4 5 5 5 6 6 7 7 6 6 6 6 6 6 6 6 6 7 8 8 8 10 12 15 17 18 18 19 19 19 19 19 19 19 18 18 18 18 18 17 17 17 17 18 18 19 19 19 20 19 19 19 19 19 20 20 20 21 21 21 21 22 22 22 22 22 23 23 23 23 23 23 23 24 24 24 25 25 25
3 3 3 4 4 4 4 4 5 5 5 5 5 5 6 5 5 5 5 5 6 6 6 6 6 7 8 9 10 12 13 14 15 16 17 17 18 18 18 18 17 17 17 17 17 17 17 17 17 18 18 19 19 19 20 19 19 19 19 19 19 20 20 20 21 21 21 21 21 22 22 22 22 23 23 23 23 23 23 23 24 24 24 25 25 25
4 4 4 4 4 4 4 4 5 5 5 5 5 5 5 5 5 5 6 5 5 5 5 6 6 6 6 7 9 10 10 10 11 12 13 14 15 15 16 16 16 17 17 17 17 17 17 18 18 18 19 19 20 20 20 19 19 18 18 19 19 20 20 20 20 21 21 21 21 22 22 22 22 23 23 23 23 23 23 23 23 24 24 24 25 25
5 5 5 5 5 5 5 5 5 5 5 5 5 5 6 6 6 6 5 5 5 5 5 5 5 5 5 6 7 8 9 9 9 9 10 10 10 11 13 14 15 16 16 17 17 17 18 18 18 19 19 20 20 20 19 19 18 18 18 18 19 19 20 20 20 21 21 21 22 22 22 22 23 23 23 23 23 23 23 23 23 24 24 24 24 25
5 5 5 5 5 5 5 6 5 5 5 5 5 5 6 7 7 7 6 6 5 4 4 4 5 5 6 5 6 7 9 10 11 12 13 13 13 13 13 13 13 14 16 16 17 17 18 18 19 19 19 19 20 19 19 18 18 18 18 18 19 19 20 20 21 21 21 22 22 22 22 22 23 23 23 23 23 23 23 23 23 23 24 24 24 24
5 5 5 5 4 4 5 5 5 5 5 5 5 5 5 5 6 6 7 6 5 4 4 4 5 5 6 6 6 7 7 8 9 11 12 14 15 15 15 14 13 13 15 15 16 16 17 18 18 18 19 19 19 19 18 18 17 17 17 18 19 19 20 20 21 21 21 22 22 22 22 23 23 23 23 23 23 23 23 23 23 23 24 24 24 24
4 4 3 4 4 4 4 4 4 4 4 4 5 5 5 4 4 5 6 7 7 6 6 5 4 4 5 6 7 7 7 7 7 8 8 9 10 10 10 10 10 10 11 12 13 14 15 16 17 17 18 18 18 18 17 16 16 16 17 18 19 19 20 21 21 21 21 22 22 22 23 23 23 23 23 23 23 23 23 23 23 23 24 24 24 24
3 3 3 4 4 4 4 4 4 3 4 4 5 5 5 4 4 4 5 6 6 6 6 6 5 5 5 6 6 6 6 7 7 7 7 6 6 6 6 5 5 5 6 7 7 9 12 14 15 16 16 17 17 17 16 15 15 16 17 18 19 20 20 21 21 21 21 22 22 22 23 23 23 23 23 23 23 23 23 23 23 23 23 24 24 24
4 3 3 4 4 4 4 4 4 4 4 4 5 5 5 5 5 5 5 5 5 5 5 6 6 6 5 6 6 6 6 7 7 7 7 6 5 4 4 4 4 4 4 5 6 7 10 11 11 12 14 15 15 15 14 14 15 16 17 18 19 20 21 21 21 21 21 22 22 22 23 23 23 23 23 23 23 23 23 23 23 23 24 24 24 24
4 4 4 4 4 4 5 5 5 6 5 5 5 5 5 5 5 4 4 5 6 6 6 7 8 7 5 5 5 6 6 6 6 6 6 5 4 4 4 4 4 5 5 5 6 7 9 9 8 8 10 12 12 13 13 14 15 17 18 19 20 20 21 21 21 21 21 22 22 22 22 23 23 23 23 23 23 23 23 23 23 24 24 24 24 24
4 4 4 5 5 5 5 5 5 6 6 6 5 5 5 5 4 4 5 6 6 6 6 7 7 7 5 4 4 5 6 6 5 5 6 5 4 4 4 5 5 5 6 6 7 7 7 7 8 8 8 11 13 14 15 15 17 18 19 20 20 20 21 21 21 21 21 22 22 22 22 23 23 23 23 23 23 23 23 23 23 23 24 24 24 24
3 4 4 5 5 5 5 5 5 5 6 6 5 5 4 5 5 5 5 6 5 5 4 4 5 5 4 4 3 3 5 5 5 5 5 5 5 5 5 5 5 6 7 7 7 7 7 7 7 7 7 10 13 15 16 17 18 19 19 20 20 20 20 21 21 21 21 21 22 22 22 23 23 23 23 23 23 23 23 23 23 23 24 24 24 24
3 3 4 5 5 5 5 5 5 6 6 5 5 4 4 4 5 5 5 5 5 4 4 3 3 3 4 3 3 3 4 4 4 4 5 5 5 5 5 5 6 7 7 7 7 7 7 6 6 6 8 12 14 16 17 18 18 19 19 20 20 20 20 20 21 21 21 21 22 22 22 22 23 23 23 23 23 23 23 23 23 23 24 24 24 24
4 4 5 5 5 4 4 5 5 5 5 5 5 6 6 6 5 5 5 4 4 4 4 3 3 3 3 3 3 2 2 2 3 4 5 5 5 5 6 6 7 7 7 7 7 7 6 5 6 8 11 14 15 16 17 18 19 19 20 20 20 20 20 20 20 21 21 22 22 22 22 22 22 23 23 23 23 23 23 23 23 24 24 24 24 24
6 6 5 5 5 5 6 6 5 5 6 6 6 7 7 7 6 5 4 4 3 3 3 3 3 3 3 3 3 3 2 2 3 4 5 6 6 6 6 6 7 7 7 7 6 6 5 5 5 7 11 13 15 16 17 18 19 19 20 20 20 20 20 20 20 21 21 22 22 22 22 22 22 22 22 23 23 23 23 23 23 23 23 24 24 24
7 7 6 5 5 5 5 5 6 7 8 8 8 8 7 6 5 5 4 3 3 3 3 3 4 4 3 4 5 5 4 4 4 4 4 4 5 5 5 6 6 7 7 6 5 5 5 5 5 6 8 12 15 17 18 19 19 19 19 19 19 19 19 20 20 21 21 22 22 22 22 22 22 22 22 22 23 23 23 23 23 23 23 23 23 23
6 6 6 6 6 6 6 7 7 8 9 9 8 7 5 5 4 4 3 4 4 4 5 5 5 5 5 6 6 6 5 4 4 4 4 4 5 5 4 5 6 6 6 6 5 5 5 5 5 6 9 13 16 17 18 19 19 19 19 18 18 19 19 20 21 21 21 22 22 22 22 22 22 22 22 22 23 23 23 23 23 23 23 23 23 23
5 6 6 6 6 6 7 7 7 7 7 6 6 6 5 4 4 5 5 5 5 5 5 5 5 5 5 5 6 6 5 4 3 3 3 4 4 5 4 5 5 6 6 6 5 5 5 5 5 6 9 14 16 17 18 19 18 18 18 18 18 19 20 20 21 21 22 22 22 22 22 22 22 22 22 22 22 23 23 23 23 23 23 23 23 24
5 5 6 6 6 6 6 6 6 5 4 4 4 4 4 5 5 5 5 5 5 6 5 5 5 5 5 5 6 5 4 2 1 1 2 3 3 4 4 4 5 6 6 6 6 6 6 6 6 6 7 12 15 17 18 18 18 18 18 18 19 20 20 21 21 21 21 21 21 21 21 22 22 22 22 22 22 22 22 22 23 23 23 23 24 24
5 6 6 6 7 8 8 8 7 7 6 5 5 5 5 6 7 7 6 6 6 6 5 5 6 6 5 5 5 4 3 2 2 1 2 2 3 3 4 4 5 6 6 6 6 6 6 6 6 6 6 9 13 16 17 17 18 18 18 19 20 20 21 21 21 21 21 21 21 21 21 22 22 22 22 22 22 22 22 22 22 23 23 24 24 24
7 8 9 10 12 13 14 14 14 13 13 10 8 6 6 7 7 7 7 6 6 6 6 7 7 6 5 5 5 4 2 2 1 1 2 2 3 3 4 4 5 5 6 6 6 6 6 6 6 6 6 7 10 13 15 17 18 18 19 20 20 20 21 21 20 20 20 20 21 21 21 22 22 22 22 22 22 22 22 22 22 23 23 24 23 23
11 12 14 15 15 16 16 16 16 17 18 16 13 11 8 7 7 7 7 6 6 7 7 7 7 6 6 5 5 4 2 2 1 1 1 2 3 3 4 4 5 6 6 6 6 6 7 7 7 6 6 6 7 10 14 16 17 18 19 20 20 20 20 20 20 20 20 20 20 21 21 22 22 22 22 22 22 22 22 22 22 23 23 22 20 18
13 14 15 15 15 16 16 16 16 16 17 17 17 15 10 7 6 6 6 6 6 7 7 7 7 6 5 5 4 4 2 2 1 1 2 2 3 3 4 4 5 5 6 5 6 6 7 7 6 6 6 6 6 8 11 14 16 17 18 19 19 20 20 19 19 19 20 20 21 21 21 21 22 22 22 22 22 22 22 22 22 22 20 17 13 11
12 14 14 15 15 15 15 14 14 14 15 16 15 13 8 5 5 5 6 6 6 7 7 7 7 6 5 5 5 4 2 2 2 2 2 2 3 3 4 4 5 5 5 5 5 5 5 5 5 5 5 7 7 7 8 11 13 14 15 17 18 18 19 19 19 19 20 20 21 21 21 21 21 21 21 21 22 22 22 22 22 19 15 12 10 9
9 10 10 11 11 11 11 9 9 11 12 13 12 10 7 4 3 4 5 5 6 6 7 7 6 6 5 5 4 3 1 2 2 2 3 3 3 3 4 4 5 5 5 4 4 4 4 4 4 4 5 7 7 7 7 8 8 9 10 12 14 15 17 18 18 19 20 20 20 21 21 21 21 21 21 21 21 21 22 22 20 16 10 9 8 9
6 7 6 7 7 6 6 5 6 6 8 9 9 7 5 4 3 3 4 4 5 5 6 6 6 6 5 4 4 3 1 1 2 3 3 2 3 3 4 5 5 5 4 4 4 4 4 4 4 4 5 7 7 7 7 7 7 7 7 8 9 10 14 16 17 18 18 19 19 20 20 21 21 21 21 21 21 21 22 22 19 15 10 9 9 9
6 6 5 5 5 4 4 4 3 4 4 5 5 5 5 4 4 3 3 4 4 5 5 6 6 5 5 4 3 3 2 2 3 4 3 3 2 3 4 4 5 5 4 4 4 4 4 4 4 5 6 7 7 7 7 7 7 7 7 7 7 8 12 14 15 15 15 16 18 19 19 20 20 20 21 21 21 21 21 22 20 16 11 9 9 9
5 5 5 5 4 4 3 3 3 4 4 4 4 4 5 4 4 4 3 3 4 4 5 5 5 5 5 4 3 3 2 2 3 4 4 3 3 3 3 4 5 5 5 4 4 4 4 5 5 6 6 6 6 6 7 7 7 7 7 7 7 8 10 11 11 11 12 13 14 15 16 18 18 19 20 20 20 21 21 22 21 19 14 10 9 9
5 5 5 4 4 4 3 4 4 4 5 5 5 5 4 4 4 4 4 4 4 4 4 4 4 4 4 3 3 3 2 2 3 5 5 4 3 3 4 4 5 5 5 5 5 5 5 5 6 6 6 6 6 6 6 6 7 7 6 7 7 7 8 8 8 9 9 10 9 10 11 12 14 16 17 18 19 20 21 22 22 21 19 14 11 9
5 5 5 4 4 4 4 4 5 5 5 5 5 4 4 4 4 4 4 4 4 3 3 3 3 3 3 3 3 3 3 3 5 6 6 4 4 4 4 4 5 5 5 5 5 5 5 6 7 7 7 7 6 5 5 5 6 6 6 7 7 7 7 7 7 8 9 8 8 8 8 8 10 11 13 16 18 19 21 22 22 21 20 18 15 11
4 5 4 4 4 4 4 5 5 5 5 5 4 4 4 4 4 4 4 3 3 4 4 4 3 3 2 3 3 4 4 4 5 6 6 4 4 4 4 4 5 5 6 6 6 5 5 6 7 8 8 7 6 6 5 5 6 6 7 7 7 7 7 7 7 7 7 8 8 8 8 8 9 10 11 15 18 20 21 21 21 20 20 19 18 15
5 5 5 4 4 4 5 5 5 5 5 4 4 4 4 4 4 4 3 3 3 3 4 4 4 3 3 3 3 4 4 4 4 4 4 3 3 3 3 4 5 5 5 6 6 6 7 7 7 8 8 7 6 6 6 6 7 7 7 7 7 7 7 7 7 7 7 8 8 8 9 9 9 10 11 15 17 18 18 19 18 18 19 18 18 18
5 5 5 5 4 4 5 5 5 5 5 4 4 4 4 4 4 3 3 2 2 3 4 4 3 4 5 6 6 5 4 4 4 4 3 2 2 3 3 4 5 5 5 5 6 6 7 7 7 7 7 6 7 7 8 8 8 8 8 7 7 7 6 6 7 7 7 8 9 10 10 10 9 9 10 11 11 11 12 12 13 14 16 16 16 17
6 6 6 5 5 5 5 5 5 5 5 4 4 4 4 4 4 3 2 2 2 3 3 3 3 4 5 6 7 7 6 5 4 4 3 2 2 2 3 4 4 5 4 4 5 5 6 6 6 6 7 7 7 8 8 7 8 8 8 8 7 6 6 6 7 7 7 8 9 10 10 9 9 9 9 9 9 9 10 10 11 12 12 11 12 13
6 5 5 6 5 5 5 5 5 4 4 4 4 5 4 4 3 2 1 2 2 3 4 4 4 4 5 6 6 6 6 5 4 3 2 2 1 2 2 3 4 4 5 4 4 5 6 6 7 7 8 7 7 7 7 7 8 8 9 7 6 6 7 7 7 7 7 8 8 9 9 9 9 9 9 9 9 9 9 9 9 10 10 9 8 9
6 6 5 5 5 5 5 5 5 4 4 4 4 4 4 4 4 3 2 2 2 3 3 3 3 4 4 4 4 4 4 4 4 3 2 2 2 2 2 3 3 4 5 5 5 5 6 6 7 7 7 8 8 8 8 8 9 10 10 8 7 7 8 8 8 7 7 8 8 8 9 9 9 9 9 9 9 8 8 8 9 9 9 8 7 7
7 6 6 5 5 5 5 5 5 5 4 3 3 3 3 3 3 4 3 3 2 2 2 2 3 3 4 4 4 2 1 2 3 3 3 3 3 3 3 3 4 5 5 6 6 6 6 7 7 7 7 7 7 8 7 8 9 9 9 8 8 9 8 8 7 7 7 8 8 8 9 9 9 9 9 9 9 9 9 9 10 10 9 8 6 6
7 6 6 6 6 6 6 6 5 4 3 3 3 3 3 2 3 3 4 3 3 2 2 3 3 3 4 4 4 3 2 1 1 2 2 2 3 4 4 4 4 5 5 6 6 7 7 7 7 7 7 7 7 8 8 8 8 8 8 8 8 8 6 6 6 7 7 8 8 8 8 8 8 8 9 9 9 8 8 9 10 10 9 8 7 6
6 6 6 6 6 6 6 5 4 3 3 3 3 3 2 2 2 3 3 3 3 3 3 3 3 3 4 4 4 4 3 3 4 4 5 5 5 4 4 5 5 6 5 6 6 7 7 7 7 6 6 6 7 7 7 7 7 7 7 8 8 7 6 6 7 8 8 8 7 7 7 8 8 8 8 8 8 8 7 7 7 7 8 7 6 6
5 6 6 6 6 6 5 5 4 3 3 3 2 2 1 2 2 3 3 3 3 3 3 3 3 3 4 4 4 4 3 3 4 4 4 6 8 8 7 6 6 6 6 6 6 6 6 7 7 6 6 5 6 6 6 7 8 8 8 9 8 8 7 7 8 8 8 8 8 8 9 9 9 9 8 8 8 7 7 7 7 7 7 6 6 5
5 6 6 6 6 6 6 5 4 3 3 3 2 1 1 2 2 2 3 3 3 3 3 3 3 4 4 4 4 4 4 4 4 4 4 5 5 5 5 6 6 6 6 6 6 6 6 6 6 6 6 5 5 5 6 6 7 7 8 8 8 8 8 8 7 7 7 8 8 9 10 10 9 8 8 8 8 8 7 7 7 7 7 7 6 6
6 6 6 6 6 6 6 5 4 4 4 3 2 1 1 1 2 3 3 3 4 4 4 4 4 4 4 4 4 4 5 5 5 5 5 5 5 5 5 5 6 6 6 6 7 7 7 6 6 6 5 5 5 5 6 6 6 7 7 8 8 8 8 7 7 7 7 7 8 9 11 10 9 8 8 8 8 8 7 7 7 7 7 6 6 5
6 6 6 6 6 6 6 5 5 4 4 4 3 2 1 1 2 3 3 4 4 4 4 4 4 4 4 4 4 5 6 6 6 6 6 6 6 6 6 5 6 6 6 7 7 8 7 7 7 6 5 5 5 5 5 5 6 6 7 7 7 8 8 8 8 7 7 8 9 10 10 9 8 8 8 8 8 7 7 7 7 6 6 5 5 5
6 6 6 6 6 6 6 5 5 4 4 4 3 2 1 2 2 3 3 3 3 3 4 4 4 4 4 4 4 5 6 6 6 5 6 6 6 6 6 6 6 6 6 6 6 6 6 6 7 7 6 5 4 4 5 5 6 6 6 6 6 7 7 8 8 8 8 9 10 10 9 8 7 7 7 8 8 8 8 8 7 6 5 5 5 5
6 6 6 6 6 6 6 6 5 5 4 4 3 2 2 1 2 2 2 2 3 3 3 4 4 4 4 4 5 5 6 6 6 6 6 5 5 6 6 6 7 7 6 6 5 5 5 5 5 5 5 4 3 3 4 5 6 6 6 6 6 6 7 7 8 8 8 9 9 10 10 8 7 7 6 7 8 9 9 8 8 7 6 5 5 5
6 6 6 6 6 6 6 6 5 5 4 4 3 2 2 2 2 2 2 2 3 3 3 3 3 4 4 5 5 5 6 5 6 6 6 5 5 6 6 6 7 7 7 7 6 6 5 5 4 4 4 3 3 3 3 4 6 6 6 6 6 6 6 7 8 8 9 9 9 9 9 8 7 7 7 7 7 8 8 8 9 8 7 6 5 5
Wind_Direction
259 260 257 251 254 259 261 258 259 263 268 270 271 272 272 272 271 272 274 276 278 278 278 278 278 279 281 283 283 284 285 284 284 284 283 284 284 285 287 288 290 290 290 289 288 287 287 287 288 289 291 292 294 296 298 302 304 307 308 308 307 306 305 305 304 304 305 305 305 305 306 306 306 306 305 304 304 303 303 304 305 304 304 303 302 301
258 261 260 253 255 259 264 259 257 258 263 268 272 274 275 276 277 278 279 279 279 279 279 280 281 282 284 285 286 287 287 287 287 287 286 286 286 287 287 288 289 290 290 289 288 287 286 287 287 288 289 291 293 296 299 302 305 306 307 307 306 305 304 304 304 304 305 305 305 306 306 306 306 305 305 304 303 303 303 303 303 302 301 301 301 301
263 269 269 264 265 267 273 270 266 263 265 271 273 275 277 278 278 278 278 278 278 278 278 281 283 285 286 287 287 287 287 287 288 288 288 288 287 287 288 288 289 289 289 288 288 287 286 286 287 288 289 291 294 297 300 303 304 305 306 306 305 305 304 304 304 305 305 306 306 306 306 306 305 305 304 303 302 302 302 302 302 301 301 301 302 302
273 277 278 277 275 275 277 280 279 276 272 274 275 275 274 274 273 273 272 274 276 278 279 282 283 284 285 285 285 285 285 286 286 287 288 288 288 288 288 288 288 288 288 288 287 286 286 286 286 287 289 292 295 298 301 303 304 305 305 305 305 304 304 305 305 305 306 306 306 306 306 305 304 303 302 302 301 301 301 302 302 302 302 303 303 304
278 279 282 284 281 279 278 281 283 281 277 274 272 271 269 267 267 268 268 270 274 277 279 280 280 281 280 280 280 281 282 283 284 285 286 287 287 288 288 288 288 287 287 287 286 286 285 286 286 288 291 294 296 299 300 302 303 304 304 304 304 304 305 305 306 306 307 307 307 306 305 304 303 302 301 301 301 301 302 302 303 303 304 304 304 304
279 281 283 281 280 280 282 282 281 280 278 273 269 267 265 263 264 266 268 270 273 275 277 278 278 278 278 277 278 280 281 282 283 283 284 285 286 287 287 287 287 287 287 286 286 285 286 286 288 289 292 294 296 298 300 301 302 303 304 304 304 304 305 306 306 307 307 307 306 305 303 303 302 301 301 301 301 302 302 303 304 304 305 305 304 304
281 280 279 277 277 279 282 282 281 279 278 276 274 272 270 269 268 269 269 271 274 277 280 281 281 281 281 281 283 284 284 284 284 284 285 285 286 287 288 289 289 289 288 288 287 287 287 288 289 291 292 294 295 297 299 300 301 302 303 303 303 304 305 306 307 307 307 306 305 304 303 302 302 301 301 301 302 303 304 305 305 305 306 305 304 303
279 279 278 279 281 283 282 281 279 277 274 276 279 281 280 279 277 276 275 275 276 277 279 280 280 281 283 288 292 294 295 293 293 292 289 288 288 289 290 291 291 291 290 289 289 288 288 289 289 290 291 293 295 296 298 300 301 302 302 302 303 304 305 306 306 306 306 305 304 303 303 302 302 301 302 302 303 304 305 306 306 306 306 305 304 303
275 279 279 281 284 286 285 280 275 272 271 275 279 284 287 287 285 283 280 278 275 273 274 279 282 286 289 296 302 304 303 301 300 297 294 292 290 289 290 290 290 289 288 287 287 287 286 287 288 289 290 292 294 296 298 300 301 301 301 302 303 304 305 306 306 306 305 304 304 303 303 302 302 302 303 304 305 306 306 307 306 306 305 304 303 303
270 275 279 279 279 280 281 281 279 276 275 278 280 283 286 287 286 284 279 277 276 276 280 290 297 301 303 304 305 304 303 300 296 294 292 290 288 287 286 285 284 283 282 283 283 283 284 285 286 288 290 292 295 297 298 299 300 300 301 301 303 304 306 306 306 306 305 304 303 303 302 302 302 303 304 305 306 306 306 306 305 305 304 303 303 302
267 271 275 278 276 273 272 276 279 282 282 281 279 276 272 273 277 281 284 286 290 295 299 302 306 307 307 306 303 300 298 295 292 290 288 286 286 285 283 281 279 277 277 278 279 280 282 285 287 289 291 293 295 296 298 298 298 299 300 302 303 305 306 306 306 305 304 303 303 303 302 303 303 304 305 305 306 306 306 305 304 304 303 303 303 303
267 271 273 274 274 274 272 274 278 280 280 279 276 273 268 270 277 287 294 298 302 304 304 302 300 299 300 299 298 294 289 285 283 282 282 281 281 280 279 277 276 275 275 277 280 282 284 287 289 291 292 294 295 296 296 297 297 299 300 302 304 306 306 306 305 304 303 303 303 303 303 304 304 305 305 305 305 305 305 304 304 304 303 303 303 302
264 267 269 271 271 273 274 278 280 280 279 281 286 290 294 297 298 298 295 296 299 302 302 299 296 292 289 287 285 283 280 277 276 276 275 275 275 274 274 273 274 276 278 281 284 287 288 290 291 292 293 293 294 295 295 296 298 300 302 303 305 305 306 305 304 304 303 303 303 303 304 304 305 305 305 305 304 304 304 304 304 304 303 303 302 302
264 265 266 269 271 276 280 285 289 293 294 297 299 299 299 298 296 295 292 294 296 299 299 295 293 291 288 281 277 274 273 273 274 273 273 272 272 274 277 278 280 283 286 287 287 288 289 291 292 292 292 292 293 294 296 298 300 301 302 303 304 305 305 304 303 303 302 303 304 304 305 305 304 304 304 304 304 304 304 304 304 303 303 302 302 301
264 269 273 278 284 289 292 295 297 297 297 297 295 292 290 290 292 296 301 301 302 300 297 292 289 286 282 279 277 275 274 274 275 277 278 279 282 289 295 295 294 292 292 290 288 288 289 289 289 288 288 289 291 294 298 300 301 301 302 302 303 303 303 303 302 302 303 303 304 305 305 305 304 304 304 304 304 304 304 304 303 303 302 302 301 301
271 278 285 287 286 285 284 285 286 288 289 288 287 287 290 296 303 309 309 305 301 298 294 290 288 284 278 275 277 285 291 293 293 293 294 295 300 307 312 305 299 293 288 286 285 285 286 285 283 284 285 289 293 296 298 299 299 300 300 301 302 302 302 302 302 303 303 304 305 305 305 304 304 304 304 304 304 304 304 303 303 302 302 301 301 301
281 283 280 277 275 275 276 278 281 283 285 286 288 291 299 308 313 313 306 300 297 293 288 284 285 287 289 289 299 319 334 327 319 311 305 301 302 307 309 299 290 284 281 280 280 281 282 281 281 282 285 290 293 296 297 297 298 299 300 301 301 301 301 302 303 304 305 305 305 305 305 305 305 304 304 304 304 304 303 303 303 302 302 301 300 300
272 270 269 272 276 281 286 288 287 286 286 292 299 307 311 312 309 303 298 295 293 290 286 280 280 285 295 301 326 6 16 345 324 310 300 294 294 296 295 286 279 276 276 277 277 278 278 278 279 281 285 291 293 295 297 297 298 299 300 300 301 301 301 303 304 305 306 306 305 305 305 305 305 305 304 304 304 304 304 303 303 302 301 300 300 299
279 280 284 287 290 292 293 291 291 295 302 311 317 318 312 305 298 293 289 289 287 285 286 288 288 290 293 296 313 347 20 335 311 300 292 288 288 288 287 281 277 276 277 278 278 278 277 277 281 285 288 292 294 296 297 298 298 299 299 300 301 302 303 304 305 306 306 306 305 305 305 305 305 305 305 305 304 304 304 303 302 302 301 300 300 299
287 288 290 295 297 297 295 295 301 310 318 321 319 312 303 297 293 289 287 287 285 284 287 292 294 294 295 295 300 304 307 292 286 284 284 284 285 288 289 287 285 284 282 281 282 282 283 284 288 292 294 296 297 298 298 299 299 299 299 300 302 303 304 306 306 306 306 305 305 305 305 305 305 305 305 305 305 304 304 303 302 301 301 300 300 300
286 288 291 297 300 300 299 303 311 317 320 319 313 305 297 294 291 290 292 295 297 295 293 290 289 291 292 291 290 290 290 285 282 281 280 281 284 289 296 294 292 289 288 288 289 290 293 294 296 297 298 298 299 299 299 299 299 300 300 302 303 304 305 306 306 306 306 305 305 305 305 305 305 305 305 305 304 304 303 303 302 302 301 301 300 300
284 288 294 298 298 297 299 303 309 314 317 316 311 304 300 300 299 300 302 303 300 297 292 288 285 284 285 285 285 285 282 275 273 275 280 280 284 290 300 301 300 297 296 297 298 299 299 299 299 299 300 300 300 300 300 300 300 301 302 304 305 306 306 306 306 306 305 305 305 305 305 305 306 306 306 305 305 304 304 303 303 302 302 301 301 301
283 289 294 296 296 296 299 303 308 313 318 316 311 307 307 307 305 304 304 301 296 291 287 282 280 278 278 279 282 282 277 271 268 269 274 278 286 294 308 311 309 305 300 300 300 300 300 300 299 300 300 301 301 301 301 301 302 303 305 306 307 307 307 307 306 306 305 305 305 305 305 306 306 306 306 306 305 305 305 304 304 303 303 302 302 301
287 291 294 296 298 300 302 306 309 313 318 314 309 304 303 299 297 296 295 293 289 285 283 283 283 282 282 286 288 291 299 327 349 297 272 280 291 303 316 316 309 303 298 298 300 301 302 300 300 300 300 301 301 302 302 303 305 306 308 309 309 309 308 307 307 306 305 305 305 305 306 307 307 307 307 306 306 306 305 305 305 304 304 303 302 302
296 300 303 307 310 312 313 312 311 310 308 304 299 294 292 293 294 294 293 290 287 286 287 290 293 295 298 302 303 310 353 36 43 353 290 293 299 307 314 312 306 301 299 300 302 303 302 301 301 301 300 300 301 303 304 306 308 309 310 310 310 309 308 308 307 306 306 306 306 306 307 307 308 308 307 307 307 306 306 306 305 305 304 304 303 302
322 323 322 319 318 316 315 312 310 308 305 303 300 297 296 299 301 302 301 299 299 300 302 301 302 304 309 310 311 319 13 48 47 354 312 305 305 307 309 309 306 303 301 302 304 304 302 301 302 302 301 300 302 305 307 309 310 311 311 311 310 309 309 308 307 307 307 307 307 308 308 308 308 308 308 308 307 307 307 307 306 306 306 305 304 304
333 328 323 319 316 314 312 309 306 305 304 304 305 307 310 314 315 313 311 312 316 317 314 311 309 309 311 310 311 319 6 51 48 358 324 309 303 304 308 311 310 307 305 304 304 303 302 302 302 303 302 302 303 306 309 310 311 311 311 311 310 310 309 309 308 308 308 308 309 309 309 309 309 309 308 308 308 308 308 308 308 308 307 307 306 305
328 323 318 315 311 308 305 304 303 304 306 308 310 314 320 324 322 317 316 322 325 323 318 314 312 311 310 309 310 318 358 48 48 4 330 311 303 302 309 314 313 311 307 304 303 301 301 300 301 303 303 304 305 307 309 311 311 311 311 311 311 310 310 309 309 309 310 310 310 310 310 310 310 309 309 309 309 309 309 309 310 310 310 310 309 307
319 315 312 309 307 306 305 306 308 310 312 314 318 324 334 335 327 321 323 331 330 325 317 313 310 308 306 308 309 315 350 42 38 5 338 318 306 304 313 316 315 313 309 306 303 301 299 299 301 303 304 306 306 307 308 311 312 312 312 311 311 311 310 310 311 311 312 312 312 311 311 311 310 310 310 310 310 310 311 312 312 313 313 312 310 306
314 312 310 309 309 310 311 314 315 316 318 322 327 335 346 348 341 335 337 340 333 324 313 309 306 305 306 309 309 312 342 40 33 4 343 322 310 309 318 316 314 311 310 309 307 304 300 299 301 303 305 307 308 308 309 311 312 312 311 311 311 311 311 312 312 313 313 313 312 312 312 312 312 311 312 312 312 313 314 315 316 317 317 314 310 306
315 315 313 312 313 314 316 315 316 318 323 332 340 347 358 4 3 357 352 344 332 318 308 305 304 307 311 314 313 312 330 22 21 6 349 325 313 314 319 313 309 308 310 312 311 309 306 305 306 307 309 309 309 309 310 311 312 311 310 310 310 311 312 313 314 314 314 313 313 313 313 313 313 313 314 314 315 316 317 318 320 320 318 315 311 307
316 315 312 312 312 312 312 313 318 328 339 347 352 357 2 9 12 9 359 343 326 312 304 303 306 309 315 314 311 309 320 350 5 4 355 332 316 312 314 308 306 307 311 313 312 309 307 308 310 312 313 310 309 309 310 311 311 311 312 312 311 311 313 314 315 314 314 314 314 314 314 314 314 315 316 317 318 319 319 321 322 322 320 317 312 308
313 311 309 310 310 312 317 328 338 347 352 354 354 355 358 3 4 1 353 335 319 308 303 303 306 310 313 311 309 307 314 336 356 0 356 339 320 310 310 307 307 308 312 312 310 306 301 303 307 310 310 308 307 308 309 311 312 313 314 314 313 312 313 315 315 315 314 314 313 314 314 315 316 317 318 319 320 321 321 322 322 322 321 318 313 309
311 310 310 312 316 324 334 344 350 352 352 349 348 348 350 350 349 345 337 325 314 306 302 302 305 309 313 314 313 313 315 333 350 354 353 340 323 311 310 308 308 309 312 313 310 307 300 300 303 306 306 305 306 306 308 311 313 315 316 314 312 311 312 315 315 314 313 313 312 312 314 315 317 319 320 321 321 322 322 321 321 321 320 317 314 310
312 313 317 322 328 335 342 348 350 349 346 344 342 341 341 338 334 330 326 321 314 305 297 295 298 304 311 314 313 312 313 324 338 344 345 337 325 313 309 307 309 311 313 312 311 309 303 302 303 304 304 305 306 306 308 312 315 316 314 312 310 310 312 314 315 314 313 313 313 313 315 317 319 320 321 322 322 322 321 320 320 319 318 316 313 309
316 319 324 330 334 339 343 347 346 344 340 337 335 333 332 329 326 323 323 319 311 304 297 294 294 296 299 300 299 300 303 312 325 334 338 334 324 313 306 306 309 312 313 311 310 309 307 305 304 305 305 305 306 308 311 315 316 315 312 311 311 312 313 314 313 313 313 314 315 317 319 320 322 322 321 321 321 320 320 319 318 317 316 314 312 308
322 325 331 334 336 340 343 344 343 339 334 330 328 327 327 325 323 322 322 317 310 304 300 297 292 285 277 275 277 282 289 298 309 319 326 324 316 306 301 303 308 311 311 310 311 311 309 307 307 306 306 305 306 310 314 318 318 316 313 314 315 315 314 313 313 314 314 316 318 319 321 323 323 323 321 320 320 320 319 318 317 316 315 313 311 309
330 331 332 333 336 338 341 340 336 332 328 324 322 322 325 323 322 320 317 310 302 295 291 290 286 279 269 265 263 264 268 274 281 288 297 299 296 294 296 300 305 308 308 308 309 310 310 308 308 308 307 306 306 309 312 316 317 316 314 314 314 313 312 313 315 317 318 319 320 321 323 324 324 322 320 320 321 320 319 318 317 316 316 314 313 311
331 330 329 331 333 336 337 334 329 324 319 317 316 319 322 321 319 316 309 298 286 276 271 273 274 272 266 262 259 257 257 258 261 266 273 275 280 287 293 297 302 304 305 306 307 307 307 306 305 306 307 307 308 310 312 312 313 313 314 314 313 313 312 315 318 320 321 322 323 323 324 324 323 321 320 320 320 319 318 316 316 317 317 317 315 314
328 326 325 328 331 333 331 325 318 313 310 309 313 318 324 324 322 318 296 275 268 264 260 259 262 265 265 260 256 253 249 249 253 256 261 250 248 261 280 290 298 302 306 306 306 305 305 303 301 301 302 304 306 308 310 310 311 313 315 315 315 316 318 319 320 322 324 324 324 324 322 322 321 320 319 319 318 316 315 313 313 314 315 314 314 314
328 326 326 327 328 326 321 314 308 304 304 309 318 328 337 335 330 321 302 274 257 253 252 258 266 275 280 273 263 249 233 230 234 240 242 232 230 239 261 280 291 298 303 305 306 305 304 301 300 300 301 302 303 303 304 306 308 310 313 311 309 309 313 316 320 323 325 325 323 321 320 319 320 320 319 317 314 310 307 306 305 306 307 307 308 309
331 329 328 327 325 321 314 306 303 303 307 315 330 341 349 345 334 322 311 294 278 271 282 299 306 308 308 305 301 291 235 204 212 225 231 225 224 229 243 265 283 295 304 306 305 303 301 299 299 299 300 302 303 302 302 303 305 307 308 306 306 308 309 314 320 324 325 323 320 319 320 319 319 319 317 314 310 306 303 301 301 301 303 304 305 305
332 328 325 322 317 312 306 303 304 310 322 332 344 352 356 344 326 314 309 307 310 320 332 327 320 315 313 314 321 332 351 348 290 269 266 236 220 221 240 269 289 303 311 309 306 304 301 299 297 295 296 298 299 299 298 301 303 304 303 306 310 314 316 320 323 324 322 319 318 318 320 319 317 315 312 308 306 303 302 301 300 300 301 301 302 303
325 321 318 315 312 308 304 305 311 321 334 341 347 350 345 324 312 309 309 312 320 328 332 323 316 313 315 320 324 331 339 339 335 331 327 324 314 298 294 306 314 318 317 311 308 305 304 300 296 293 292 293 294 294 295 297 300 302 303 308 313 316 315 316 319 320 319 318 318 319 320 318 316 312 309 306 304 303 303 303 301 300 299 297 297 299
320 317 315 314 311 309 307 309 316 326 338 341 344 341 324 308 306 309 311 312 318 324 326 323 320 320 321 325 328 330 333 334 336 337 333 332 333 333 333 332 329 324 318 311 306 303 302 299 296 294 292 290 288 288 290 294 297 301 305 311 315 316 312 312 314 317 318 318 318 319 320 319 316 313 309 308 307 306 305 304 303 301 301 300 300 300
321 319 317 315 313 312 311 315 322 331 337 338 336 328 302 299 302 306 309 311 318 323 325 324 325 325 327 329 331 333 335 334 334 333 330 330 333 336 339 335 330 324 317 310 303 298 294 292 291 291 291 289 286 284 283 289 296 302 308 315 317 317 314 314 314 316 317 317 317 318 320 319 316 313 310 309 308 306 303 301 300 300 301 302 303 304
324 322 320 318 317 316 317 323 330 335 335 332 331 329 315 310 312 313 313 317 321 324 325 325 327 329 330 332 335 337 336 334 333 331 330 330 331 333 335 332 328 324 318 312 306 300 292 285 281 280 282 284 284 284 284 289 296 304 310 315 317 317 315 314 315 316 317 317 316 317 319 319 317 313 310 308 307 306 304 302 300 298 298 300 303 305
326 324 322 321 320 320 322 328 332 333 330 325 325 330 331 322 320 318 315 320 322 324 326 330 332 332 331 332 336 338 337 334 332 331 331 331 332 333 334 331 328 325 320 315 309 303 295 285 275 268 263 265 272 280 287 294 301 306 310 314 316 316 314 314 315 318 319 317 316 316 317 317 314 312 310 309 309 309 308 307 304 301 298 301 304 306
326 324 323 323 323 323 325 327 329 327 322 318 319 322 320 315 314 313 310 315 318 321 326 332 333 332 330 333 336 338 338 336 334 332 331 331 332 332 333 332 331 328 324 319 314 307 298 288 276 264 250 246 254 270 286 296 303 308 311 314 315 314 313 314 316 319 320 318 316 316 315 311 307 304 304 307 309 309 310 309 308 307 306 307 309 310
328 326 325 325 326 326 326 326 324 322 317 314 313 314 314 315 311 307 303 306 313 320 328 333 333 332 331 334 337 339 339 337 334 332 331 331 332 333 334 335 334 333 330 328 325 321 316 308 296 282 264 252 250 264 287 300 307 311 314 314 315 315 314 314 316 318 319 317 316 314 313 309 306 305 306 307 309 309 310 311 312 314 316 316 315 315
330 328 328 329 331 331 329 327 324 322 318 315 313 317 325 328 324 318 311 316 323 329 334 333 331 331 334 337 339 340 340 338 335 332 330 330 333 336 338 338 338 337 335 334 334 334 333 332 329 325 323 324 322 314 307 314 317 319 318 317 318 318 316 315 314 315 316 314 313 312 311 311 312 313 315 313 312 312 314 315 316 317 320 320 320 321